EW3511 Weather Reports


Display with metric or nautical units.
time (UTC)temp
F
wind
direction
speed
MPH
gust
MPH
rain 1hr
in
rain 24hr
in
rain mn
in
humidity
%
barometer
mb
20260505124620 76 349 0.0 2.0 0.00 0.00 0.00 38 1004.7
20260505123540 76 108 1.0 2.0 0.00 0.00 0.00 38 1004.7
20260505122540 75 60 1.0 3.0 0.00 0.00 0.00 39 1004.8
20260505121601 75 59 3.0 6.0 0.00 0.00 0.00 38 1004.8
20260505120621 76 43 2.0 6.0 0.00 0.00 0.00 37 1004.9
20260505115541 77 179 1.0 3.0 0.00 0.00 0.00 35 1005.0
20260505114602 75 84 1.0 3.0 0.00 0.00 0.00 35 1005.0
20260505113542 74 107 3.0 5.0 0.00 0.00 0.00 37 1005.1
20260505112543 75 101 2.0 6.0 0.00 0.00 0.00 35 1005.3
20260505111543 75 85 2.0 6.0 0.00 0.00 0.00 37 1005.3
20260505110544 74 54 2.0 6.0 0.00 0.00 0.00 41 1005.5
20260505101606 74 74 3.0 6.0 0.00 0.00 0.00 45 1006.3
20260505100546 74 182 1.0 3.0 0.00 0.00 0.00 42 1006.3
20260505095607 73 125 1.0 3.0 0.00 0.00 0.00 41 1006.5
20260505094608 72 133 1.0 3.0 0.00 0.00 0.00 49 1006.5
20260505093547 71 62 1.0 3.0 0.00 0.00 0.00 50 1006.6
20260505092547 72 93 1.0 5.0 0.00 0.00 0.00 51 1007.1
20260505091548 72 129 1.0 3.0 0.00 0.00 0.00 48 1007.1
20260505090548 71 151 1.0 3.0 0.00 0.00 0.00 48 1007.1
20260505085550 69 95 1.0 3.0 0.00 0.00 0.00 54 1007.2
20260505084549 71 53 1.0 2.0 0.00 0.00 0.00 55 1007.2
20260505083551 70 53 1.0 3.0 0.00 0.00 0.00 58 1007.2
20260505082550 68 117 1.0 3.0 0.00 0.00 0.00 59 1007.5
20260505081551 68 104 1.0 2.0 0.00 0.00 0.00 63 1007.6
20260505080551 65 136 0.0 1.0 0.00 0.00 0.00 67 1007.7
20260505075552 64 74 0.0 1.0 0.00 0.00 0.00 71 1007.7
20260505074552 64 72 1.0 2.0 0.00 0.00 0.00 71 1007.8
20260505073612 64 69 0.0 1.0 0.00 0.00 0.00 70 1007.8
20260505072554 64 109 0.0 2.0 0.00 0.00 0.00 71 1007.9
20260505071553 64 21 1.0 2.0 0.00 0.00 0.00 70 1008.0
20260505070554 63 69 0.0 2.0 0.00 0.00 0.00 72 1008.1
20260505065554 62 62 1.0 2.0 0.00 0.00 0.00 74 1008.1
20260505064554 62 30 1.0 3.0 0.00 0.00 0.00 73 1008.1
20260505063555 62 69 1.0 2.0 0.00 0.00 0.00 73 1008.0
20260505062555 61 86 1.0 2.0 0.00 0.00 0.00 74 1008.1
20260505061616 60 79 1.0 5.0 0.00 0.00 0.00 75 1008.0
20260505060616 59 77 1.0 3.0 0.00 0.00 0.00 75 1008.1
20260505055556 59 62 1.0 3.0 0.00 0.00 0.00 76 1008.1
20260505054558 59 55 1.0 2.0 0.00 0.00 0.00 76 1008.2
20260505053558 59 0.0 0.0 0.00 0.00 0.00 76 1008.4
20260505052558 59 0.0 0.0 0.00 0.00 0.00 75 1008.3
20260505051558 57 0.0 0.0 0.00 0.00 0.00 79 1008.3
20260505050558 54 0.0 0.0 0.00 0.00 0.00 84 1008.4
20260505041533 47 0.0 0.0 0.00 0.00 0.00 99 1008.3
20260505040533 46 0.0 0.0 0.00 0.00 0.00 98 1008.3
20260505035614 47 0.0 0.0 0.00 0.00 0.00 98 1008.4
20260505034534 47 0.0 0.0 0.00 0.00 0.00 98 1008.5
20260505033534 47 0.0 0.0 0.00 0.00 0.00 98 1008.4
20260505032534 47 0.0 0.0 0.00 0.00 0.00 98 1008.5
20260505031535 47 91 0.0 1.0 0.00 0.00 0.00 97 1008.7
20260505030535 48 86 0.0 1.0 0.00 0.00 0.00 96 1008.5
20260505025536 48 0.0 0.0 0.00 0.00 0.00 95 1008.5
20260505024536 49 112 0.0 2.0 0.00 0.00 0.00 96 1008.6
20260505023537 49 0.0 0.0 0.00 0.00 0.00 95 1008.7
20260505022538 49 0.0 1.0 0.00 0.00 0.00 95 1008.9
20260505021538 49 0.0 0.0 0.00 0.00 0.00 94 1009.1
20260505020538 50 81 0.0 1.0 0.00 0.00 0.00 94 1009.1
20260505015538 50 0.0 0.0 0.00 0.00 0.00 93 1009.2
20260505014539 50 0.0 0.0 0.00 0.00 0.00 91 1009.0
20260505013539 51 0.0 0.0 0.00 0.00 0.00 91 1009.2
20260505012600 51 0.0 0.0 0.00 0.00 0.00 90 1009.1
20260505011600 52 0.0 0.0 0.00 0.00 0.00 88 1009.2
20260505010600 53 0.0 0.0 0.00 0.00 0.00 86 1009.4
20260505005542 55 130 0.0 1.0 0.00 0.00 0.00 84 1009.4
20260505004541 54 0.0 0.0 0.00 0.00 0.00 86 1009.4
20260505003542 54 0.0 0.0 0.00 0.00 0.00 84 1009.5
20260505002543 56 0.0 0.0 0.00 0.00 0.00 81 1009.7
20260505001542 57 0.0 0.0 0.00 0.00 0.00 80 1009.7
20260505000543 57 0.0 0.0 0.00 0.00 0.00 80 1009.8
20260504235543 57 132 1.0 2.0 0.00 0.00 0.00 79 1009.9
20260504234544 57 116 0.0 1.0 0.00 0.00 0.00 79 1010.1
20260504233544 57 124 1.0 2.0 0.00 0.00 0.00 79 1010.1
20260504232605 57 118 1.0 2.0 0.00 0.00 0.00 79 1010.1
20260504231545 57 139 0.0 1.0 0.00 0.00 0.00 79 1010.3
20260504230546 57 0.0 1.0 0.00 0.00 0.00 78 1010.4
20260504225546 58 129 0.0 1.0 0.00 0.00 0.00 78 1010.4
20260504224547 58 134 0.0 1.0 0.00 0.00 0.00 77 1010.3
20260504223547 59 0.0 0.0 0.00 0.00 0.00 75 1010.5
20260504222547 59 171 0.0 2.0 0.00 0.00 0.00 74 1010.6
20260504221547 60 141 0.0 2.0 0.00 0.00 0.00 73 1010.7
20260504220548 60 116 1.0 2.0 0.00 0.00 0.00 72 1010.7
20260504215548 61 134 1.0 5.0 0.00 0.00 0.00 71 1010.9
20260504214548 61 175 1.0 3.0 0.00 0.00 0.00 71 1010.9
20260504213549 61 233 2.0 5.0 0.00 0.00 0.00 70 1011.0
20260504212610 62 9 2.0 6.0 0.00 0.00 0.00 69 1011.0
20260504211610 62 40 2.0 8.0 0.00 0.00 0.00 68 1010.9
20260504210550 62 341 2.0 7.0 0.00 0.00 0.00 66 1010.9
20260504205551 62 14 2.0 6.0 0.00 0.00 0.00 64 1010.7
20260504204551 62 91 1.0 3.0 0.00 0.00 0.00 64 1010.9
20260504203552 61 22 2.0 7.0 0.00 0.00 0.00 66 1010.8
20260504202552 59 0.0 0.0 0.00 0.00 0.00 70 1010.2
20260504201553 60 0.0 0.0 0.00 0.00 0.00 70 1010.1
20260504200553 60 0.0 0.0 0.00 0.00 0.00 68 1010.1
20260504195614 61 71 0.0 1.0 0.00 0.00 0.00 67 1009.9
20260504194614 62 132 1.0 2.0 0.00 0.00 0.00 65 1009.9
20260504193554 64 164 2.0 3.0 0.00 0.00 0.00 64 1009.9
20260504192554 63 74 1.0 3.0 0.00 0.00 0.00 62 1009.8
20260504191615 63 85 0.0 1.0 0.00 0.00 0.00 63 1009.8
20260504190614 65 0.0 0.0 0.00 0.00 0.00 60 1009.9
20260504185556 66 53 1.0 2.0 0.00 0.00 0.00 56 1009.7
20260504184556 67 53 1.0 3.0 0.00 0.00 0.00 55 1009.7
20260504183614 67 98 0.0 1.0 0.00 0.00 0.00 55 1009.5
20260504182618 68 85 0.0 1.0 0.00 0.00 0.00 53 1009.6
20260504181557 69 78 0.0 2.0 0.00 0.00 0.00 52 1009.5
20260504180634 70 67 0.0 2.0 0.00 0.00 0.00 52 1009.5
20260504175558 70 53 1.0 3.0 0.00 0.00 0.00 50 1009.5
20260504174639 71 23 1.0 3.0 0.00 0.00 0.00 49 1009.4
20260504173614 72 46 2.0 6.0 0.00 0.00 0.00 49 1009.4
20260504172559 72 46 1.0 5.0 0.00 0.00 0.00 48 1009.4
20260504171600 73 27 2.0 5.0 0.00 0.00 0.00 47 1009.3
20260504170614 73 35 2.0 5.0 0.00 0.00 0.00 46 1009.4
20260504150553 75 69 1.0 2.0 0.00 0.00 0.00 43 1009.7
20260504140536 76 70 3.0 7.0 0.00 0.00 0.00 42 1009.9